#timestamp,LO_Frequency,Hit,StdDev 
1506456015.0,286047002.5,N
1506456015.9,286047002.5,N
1506456035.8,286047000.0,N
1506456055.6,286047004.8,N
1506456075.4,286047004.2,N
1506456095.3,286047002.1,N
1506456115.1,286047005.6,N
1506456116.0,286047005.6,N
1506456135.8,286047007.1,N
1506456155.7,286047010.4,Y
1506456175.5,286047006.4,P
1506456195.3,286047009.2,P
1506456215.2,286047007.6,N
1506456235.9,286047004.1,N
1506456255.7,286047003.2,N
1506456275.5,286047001.4,N
1506456295.4,286047002.1,N
1506456315.2,286047000.5,N
1506456335.0,286046996.9,N
1506456335.9,286046996.9,N
1506456355.8,286046999.5,N
1506456375.6,286046999.0,N
1506456395.4,286047002.4,N
1506456415.3,286047002.1,N
1506456435.1,286047005.5,N
1506456436.0,286047005.5,N
1506456455.8,286047006.3,N
1506456475.7,286047009.7,N
1506456495.5,286047008.2,N
1506456515.3,286047006.3,N
1506456535.2,286047011.4,Y
1506456555.9,286047010.7,P
1506456575.7,286047010.5,N
1506456595.6,286047009.5,N
1506456615.4,286047006.5,N
1506456635.2,286047008.4,Y
1506456655.1,286046998.8,P
1506456656.0,286046998.8,N
1506456675.8,286046996.8,N
1506456695.6,286046995.1,N
1506456715.4,286046995.8,N
1506456735.3,286046995.4,N
1506456755.1,286046998.7,N
1506456775.8,286047001.9,N
1506456795.7,286047002.2,N
1506456815.5,286047002.3,N
1506456835.3,286047002.6,N
1506456855.2,286046998.7,N
1506456875.9,286046998.5,N
1506456895.7,286047000.5,N
1506456915.6,286047002.3,N
1506456935.4,286046999.2,N
1506456955.2,286046996.7,N
1506456975.0,286046993.6,N
1506456975.9,286046993.6,N
1506456995.8,286046995.5,N
1506457015.6,286046993.3,N
1506457035.4,286046994.3,N
1506457055.3,286046996.4,N
1506457075.1,286046995.9,N
1506457076.0,286046995.9,N
1506457095.8,286046994.1,N
1506457115.7,286046994.7,N
1506457135.5,286046991.9,N
1506457155.3,286046993.2,N
1506457175.2,286046990.2,N
1506457195.9,286046990.7,N
1506457215.7,286046991.1,N
1506457235.6,286046987.2,Y
1506457255.4,286046990.4,P
1506457275.2,286046992.7,N
1506457295.1,286046991.9,P
1506457296.0,286046991.9,Y
1506457315.8,286047001.0,P
1506457335.6,286047000.1,N
1506457355.5,286047001.3,N
1506457375.3,286047002.9,N
1506457395.1,286047001.8,N
1506457415.8,286046996.6,N
1506457435.7,286046998.4,N
1506457455.5,286046998.5,N
1506457475.3,286046998.6,N
1506457495.2,286046999.1,N
1506457515.9,286046999.7,N
1506457535.7,286047000.4,N
1506457555.6,286047002.6,N
1506457575.4,286047005.8,N
1506457595.2,286047007.2,N
1506457615.1,286047009.4,N
1506457616.0,286047009.4,N
1506457635.8,286047014.0,Y
1506457655.6,286047014.8,P
1506457675.5,286047015.5,N
1506457695.3,286047016.0,N
1506457715.1,286047011.0,N
1506457735.9,286047013.3,N
1506457755.7,286047012.8,N
1506457775.5,286047012.9,N
1506457795.4,286047014.2,Y
1506457815.2,286047006.0,P
1506457835.0,286047001.9,N
1506457835.9,286047001.9,N
1506457855.8,286046998.6,N
1506457875.6,286046997.5,N
1506457895.4,286046996.2,N
1506457915.2,286046998.0,N
1506457935.1,286047000.3,N
1506457936.0,286047000.3,N
1506457955.8,286047001.7,N
1506457975.6,286046999.9,N
1506457995.5,286047002.4,N
1506458015.3,286047002.7,N
1506458035.1,286047001.1,N
1506458055.9,286046995.5,N
1506458075.7,286046992.1,N
1506458095.5,286046995.8,N
1506458115.4,286046997.7,N
1506458135.2,286047000.6,N
1506458155.0,286047003.5,N
1506458155.9,286047003.5,N
1506458175.8,286046999.7,N
1506458195.6,286047000.6,N
1506458215.4,286047002.7,N
1506458235.2,286047002.7,N
1506458255.1,286047001.6,N
1506458256.0,286047001.6,N
1506458275.8,286046996.5,N
1506458295.6,286046997.0,N
1506458315.5,286046998.5,N
1506458335.3,286047001.6,N
1506458355.1,286047004.4,N
1506458375.9,286047004.4,N
1506458395.7,286047002.1,N
1506458415.5,286047003.9,N
1506458435.4,286047006.9,N
1506458455.2,286047012.1,Y
1506458475.0,286047009.1,P
1506458475.9,286047009.1,N
1506458495.8,286047007.5,N
1506458515.6,286047004.4,N
1506458535.4,286047000.5,N
1506458555.3,286047002.3,N
1506458575.1,286047001.4,N
1506458576.0,286047001.4,N
1506458595.8,286047001.3,N
1506458615.6,286047000.9,N
1506458635.5,286046998.1,N
1506458655.3,286047003.6,N
1506458675.1,286047012.3,Y
1506458695.9,286047007.8,P
1506458715.7,286047013.3,P
1506458735.5,286047012.1,N
1506458755.4,286047008.3,N
1506458775.2,286047006.8,N
1506458795.0,286047007.5,N
1506458795.9,286047007.5,N
1506458815.8,286047005.3,N
1506458835.6,286047004.2,N
1506458855.4,286047003.6,N
1506458875.3,286047004.0,N
1506458895.1,286046999.7,N
1506458896.0,286046999.7,N
1506458915.8,286047001.2,N
1506458935.7,286047005.3,N
1506458955.5,286047005.9,N
1506458975.3,286047005.2,N
1506458995.1,286047001.6,N
1506459015.9,286047002.3,N
1506459035.7,286046998.7,N
1506459055.5,286046999.3,N
1506459075.4,286046997.6,N
1506459095.2,286046995.9,N
1506459115.0,286046993.9,N
1506459115.9,286046993.9,N
1506459135.8,286046993.0,N
1506459155.6,286046990.6,N
1506459175.4,286046993.1,N
1506459195.3,286046992.4,N
1506459215.1,286046997.6,N
1506459216.0,286046997.6,N
1506459235.8,286047005.8,N
1506459255.7,286047008.1,N
1506459275.5,286047010.7,N
1506459295.3,286047005.2,N
1506459315.1,286047005.4,N
1506459335.9,286047003.9,N
1506459355.7,286047003.9,N
1506459375.5,286047000.4,N
1506459395.4,286047001.5,N
1506459415.2,286047000.2,N
1506459435.0,286046999.6,N
1506459435.9,286046999.6,N
1506459455.8,286046994.2,N
1506459475.6,286046993.2,N
1506459495.4,286046992.8,N
1506459515.3,286046991.9,N
1506459535.1,286046994.3,N
1506459536.0,286046994.3,N
1506459555.8,286046992.2,N
1506459575.7,286046990.6,N
1506459595.5,286046988.5,N
